Regional Weather Roundup
Issued by NWS Sioux Falls, SD

Home | Current Version | Previous Version | Text Only | Print | Product List | Glossary On
Versions: 1 2 3 4 5 6 7 8 9 10 11 12 13 14 15 16 17 18 19 20 21 22 23 24 25 26 27 28 29 30 31 32 33 34 35 36 37 38 39 40 41 42 43 44 45 46 47 48 49 50
000
ASUS43 KFSD 152302
RWRFSD

WEATHER ROUNDUP FOR SE SOUTH DAKOTA/SW MINNESOTA/NW IOWA
NATIONAL WEATHER SERVICE SIOUX FALLS SD
500 PM CST SUN JAN 15 2017

NOTE: "FAIR" INDICATES FEW OR NO CLOUDS BELOW 12,000 FEET WITH NO
SIGNIFICANT WEATHER AND OR OBSTRUCTIONS TO VISIBILITY.


SDZ038>040-050-052>070-160000-
SOUTHEAST SOUTH DAKOTA

CITY           SKY/WX    TMP DP  RH WIND       PRES   REMARKS
BROOKINGS      CLOUDY    28  21  75 S8        30.12F WCI  20
CHAMBERLAIN    CLOUDY    29  20  70 N3        30.10S
HURON          CLOUDY    23  17  78 CALM      30.14S
MADISON          N/A     28  27  93 SE5         N/A  WCI  23
MITCHELL       CLOUDY    36  24  62 CALM      30.13S
SIOUX FALLS    CLOUDY    34  21  59 S9        30.14F WCI  27
WINNER         FAIR      36  26  67 N6        30.07S
YANKTON        CLEAR     36  18  48 S7        30.14S
$$

MNZ071-072-080-081-089-090-097-098-160000-
SOUTHWEST MINNESOTA

CITY           SKY/WX    TMP DP  RH WIND       PRES   REMARKS
FAIRMONT       CLEAR     29  23  78 S7        30.21R WCI  22
JACKSON        CLEAR     30  21  69 S6        30.18S WCI  24
LUVERNE        CLEAR     30  19  64 S7        30.16S WCI  23
MARSHALL       CLOUDY    30  22  72 S9        30.17R WCI  22
MONTEVIDEO     CLOUDY    28  19  69 S5        30.18S WCI  23
PIPESTONE      CLOUDY    28  23  80 S6        30.13F WCI  22
REDWOOD FALLS  CLOUDY    29  21  72 S8        30.18S WCI  21
TRACY          CLEAR     31  23  73 CALM      30.16S
WINDOM         CLEAR     32  23  69 S5        30.17S WCI  27
$$

IAZ001>003-012>014-020>022-031-032-NEZ013-014-SDZ071-160000-
NORTHWEST IOWA

CITY           SKY/WX    TMP DP  RH WIND       PRES   REMARKS
CHEROKEE       MOCLDY    31  20  62 S5        30.19S WCI  27
DENISON        CLOUDY    34  23  64 CALM      30.18S
ESTHERVILLE    CLEAR     28  22  78 S6        30.18F WCI  22
LE MARS        CLOUDY    32  14  47 S7        30.19S WCI  26
ORANGE CITY    CLOUDY    30  18  59 S5        30.18R WCI  25
SHELDON        CLOUDY    32  18  55 S7        30.16S WCI  26
SIOUX CITY     CLOUDY    34  20  56 S9        30.19F WCI  27
SPENCER        CLOUDY    28  20  71 S6        30.19S WCI  22
STORM LAKE     CLOUDY    30  21  69 SE7       30.18F WCI  23
$$

ABBREVIATIONS USED IN REMARKS
   TC - TEMPERATURE IN CELSIUS
  WCI - WIND CHILL INDEX
   HX - HEAT INDEX
  VSB - VISIBILITY





USA.gov is the U.S. government's official web portal to all federal, state and local government web resources and services.